Location: Castle
(40.7167°S, 175.9500°E)
Time: 17:25:07
(UTC+00:00)

Lacrosse 5 - Pass Details

Date: 04 August 2024
Orbit: 714 x 724 km, 57.0° (Epoch: 09 March)

Event Time Altitude Azimuth Distance (km) Brightness Sun altitude
Exits shadow 18:10:36 - 212° (SSW) 2,478 4.2 -13.1°
Reaches altitude 10° 18:11:44 10° 201° (SSW) 2,247 4.1 -12.9°
Maximum altitude 18:14:16 13° 172° (S) 2,013 4.1 -12.4°
Drops below altitude 10° 18:16:48 10° 142° (SE) 2,244 4.8 -12.0°
Sets 18:20:30 0° 116° (ESE) 3,162 6.1 -11.3°
